Cortez, CO

8:43 AM MDT on May 25, 2017 (GMT -0600)
Cortez Municipal

Weather History for KCEZ - May, 2012

Change the Weather History Date:

Saturday, May 5, 2012

  Actual Average Record
Temperature  
Mean Temperature 60 °F 52 °F  
Max Temperature 78 °F 71 °F 84 °F (2000)
Min Temperature 41 °F 34 °F 27 °F (2002)
Degree Days  
Heating Degree Days 5 13  
Month to date heating degree days 32 66  
Since 1 July heating degree days 5747 6136  
Cooling Degree Days 0 0  
Month to date cooling degree days 0 0  
Year to date cooling degree days 0 0  
Growing Degree Days 10 (Base 50)    
Moisture  
Dew Point 18 °F    
Average Humidity 29    
Maximum Humidity 49    
Minimum Humidity 8    
Precipitation  
Precipitation 0.00 in 0.05 in 0.38 in (2015)
Month to date precipitation 0.00 0.21  
Year to date precipitation 2.41 4.43  
Sea Level Pressure  
Sea Level Pressure 29.87 in    
Wind  
Wind Speed 9 mph (WSW)    
Max Wind Speed 21 mph    
Max Gust Speed 30 mph    
Visibility 10 miles    
Events      
T = Trace of Precipitation, MM = Missing Value Source: NWS Daily Summary

Daily Weather History Graph

Daily Weather History Graph

Search for Another Location

Airport or City:

Trip Planner

Search our weather history database for the weather conditions in past years. The results will help you decide how hot, cold, wet, or windy it might be!

Date:

Astronomy

May. 05, 2012 Rise Set
Actual Time 6:14 AM MDT 8:08 PM MDT
Civil Twilight 5:46 AM MDT 8:36 PM MDT
Nautical Twilight 5:11 AM MDT 9:11 PM MDT
Astronomical Twilight 4:35 AM MDT 9:48 PM MDT
Moon 8:04 PM MDT (5/5) 5:39 AM MDT (5/5)
Length of Visible Light 14h 50m
Length of Day
13h 53m
Full, 100% of the Moon is Illuminated
May 5
Full
May 5
Full
May 12
Last Quarter
May 20
New
May 28
First Quarter

Hourly Weather History & Observations

Time (MDT) Temp. Windchill Dew Point Humidity Pressure Visibility Wind Dir Wind Speed Gust Speed Precip Events Conditions
12:53 AM 45.0 °F - 19.9 °F 37% 29.88 in 10.0 mi Calm Calm - N/A   Clear
1:53 AM 59.0 °F - 21.9 °F 24% 29.83 in 10.0 mi South 11.5 mph - N/A   Clear
2:53 AM 57.0 °F - 21.9 °F 26% 29.82 in 10.0 mi SSW 12.7 mph - N/A   Clear
3:53 AM 57.9 °F - 21.0 °F 24% 29.84 in 10.0 mi South 15.0 mph - N/A   Clear
4:53 AM 48.0 °F - 21.9 °F 36% 29.87 in 10.0 mi Variable 5.8 mph - N/A   Clear
5:53 AM 42.1 °F 36.1 °F 21.9 °F 45% 29.90 in 10.0 mi NE 10.4 mph - N/A   Clear
6:53 AM 43.0 °F 38.8 °F 24.1 °F 47% 29.91 in 10.0 mi ENE 6.9 mph - N/A   Clear
7:53 AM 51.1 °F - 25.0 °F 36% 29.93 in 10.0 mi Calm Calm - N/A   Clear
8:53 AM 60.1 °F - 26.1 °F 27% 29.94 in 10.0 mi Calm Calm - N/A   Clear
9:53 AM 66.0 °F - 21.0 °F 18% 29.93 in 10.0 mi WSW 8.1 mph - N/A   Clear
10:53 AM 71.1 °F - 18.0 °F 13% 29.91 in 10.0 mi SSW 10.4 mph - N/A   Clear
11:53 AM 73.9 °F - 18.0 °F 12% 29.91 in 10.0 mi South 15.0 mph 24.2 mph N/A   Clear
12:53 PM 75.0 °F - 17.1 °F 11% 29.90 in 10.0 mi SW 13.8 mph - N/A   Clear
1:53 PM 75.9 °F - 14.0 °F 10% 29.83 in 10.0 mi WNW 15.0 mph 29.9 mph N/A   Clear
2:53 PM 75.0 °F - 12.0 °F 9% 29.84 in 10.0 mi West 13.8 mph 23.0 mph N/A   Clear
3:53 PM 77.0 °F - 12.9 °F 9% 29.80 in 10.0 mi WNW 12.7 mph 17.3 mph N/A   Clear
4:53 PM 77.0 °F - 12.9 °F 9% 29.82 in 10.0 mi West 12.7 mph 18.4 mph N/A   Clear
5:53 PM 73.9 °F - 10.0 °F 9% 29.84 in 10.0 mi SW 11.5 mph 21.9 mph N/A   Clear
6:53 PM 73.9 °F - 8.1 °F 8% 29.82 in 10.0 mi West 11.5 mph - N/A   Clear
7:53 PM 68.0 °F - 10.0 °F 11% 29.82 in 10.0 mi WNW 5.8 mph - N/A   Clear
8:53 PM 57.0 °F - 17.1 °F 21% 29.85 in 10.0 mi Calm Calm - N/A   Clear
9:53 PM 54.0 °F - 17.1 °F 23% 29.86 in 10.0 mi North 6.9 mph - N/A   Clear
10:53 PM 53.1 °F - 19.9 °F 27% 29.86 in 10.0 mi ENE 4.6 mph - N/A   Clear
11:53 PM 46.9 °F - 21.0 °F 36% 29.86 in 10.0 mi East 4.6 mph - N/A   Clear